QLK871 YSSY-YBTL

Flight info

Callsign QLK871
Flight time 1h 13m
Altitude 34000
Route OLSEM1/34R 3358S15111E RIC H530 KABIX Q147 VOMPA TL
Aircraft A319/M-SDE3FGHIRWY/LB1

Departure

Time 2026-05-07 13:39
Airport Sydney Kingsford Smith International Airport (YSSY)

Arrival

Time 2026-05-07 14:53
Airport Townsville Airport / RAAF Base Townsville (YBTL)
Time Latitude Longitude Altitude Speed Heading
2026-05-07 13:36 -33.96954 151.19100 30 ft 23 kts 168°
2026-05-07 13:37 -33.97087 151.19136 30 ft 14 kts 163°
2026-05-07 13:37 -33.97119 151.19240 29 ft 16 kts 74°
2026-05-07 13:37 -33.97113 151.19266 28 ft 0 kts 74°
2026-05-07 13:38 -33.97103 151.19307 27 ft 10 kts 74°
2026-05-07 13:38 -33.97046 151.19368 27 ft 15 kts 352°
2026-05-07 13:38 -33.97033 151.19365 28 ft 0 kts 347°
2026-05-07 13:39 -33.96722 151.19284 24 ft 91 kts 347°
2026-05-07 13:39 -33.95829 151.19039 72 ft 162 kts 343°
2026-05-07 13:39 -33.94728 151.18751 775 ft 169 kts 345°
2026-05-07 13:39 -33.93521 151.18876 1379 ft 178 kts
2026-05-07 13:40 -33.92405 151.19534 1954 ft 179 kts 33°
2026-05-07 13:40 -33.91436 151.20416 2473 ft 175 kts 36°
2026-05-07 13:40 -33.90397 151.21333 2651 ft 198 kts 36°
2026-05-07 13:40 -33.89213 151.22369 2835 ft 222 kts 35°
2026-05-07 13:41 -33.87906 151.23509 3132 ft 244 kts 36°
2026-05-07 13:41 -33.86465 151.24764 3516 ft 268 kts 36°
2026-05-07 13:41 -33.84893 151.26139 4015 ft 289 kts 37°
2026-05-07 13:41 -33.83481 151.27866 4898 ft 291 kts 60°
2026-05-07 13:42 -33.82682 151.30068 5868 ft 288 kts 77°
2026-05-07 13:42 -33.82097 151.32388 6804 ft 291 kts 76°
2026-05-07 13:42 -33.81498 151.34727 7593 ft 299 kts 74°
2026-05-07 13:42 -33.80568 151.37022 8300 ft 312 kts 58°
2026-05-07 13:43 -33.79221 151.39092 9114 ft 316 kts 51°
2026-05-07 13:43 -33.77807 151.41155 9909 ft 322 kts 49°
2026-05-07 13:43 -33.76144 151.43046 10334 ft 341 kts 36°
2026-05-07 13:43 -33.74037 151.44541 10534 ft 362 kts 21°
2026-05-07 13:44 -33.71581 151.45423 10855 ft 374 kts
2026-05-07 13:44 -33.68972 151.45578 11430 ft 376 kts 352°
2026-05-07 13:44 -33.66435 151.45026 12019 ft 376 kts 337°
2026-05-07 13:44 -33.64050 151.43762 12607 ft 373 kts 322°
2026-05-07 13:45 -33.62010 151.41874 13203 ft 368 kts 307°
2026-05-07 13:45 -33.60432 151.39499 13801 ft 361 kts 292°
2026-05-07 13:45 -33.59481 151.36763 14375 ft 352 kts 278°
2026-05-07 13:45 -33.58808 151.33926 15004 ft 353 kts 277°
2026-05-07 13:46 -33.58139 151.31091 15671 ft 353 kts 278°
2026-05-07 13:46 -33.57473 151.28250 16330 ft 354 kts 278°
2026-05-07 13:46 -33.56808 151.25404 16988 ft 355 kts 278°
2026-05-07 13:46 -33.56142 151.22548 17661 ft 356 kts 278°
2026-05-07 13:47 -33.55476 151.19689 18296 ft 357 kts 278°
2026-05-07 13:47 -33.54804 151.16821 18892 ft 358 kts 278°
2026-05-07 13:47 -33.54127 151.13937 19469 ft 360 kts 278°
2026-05-07 13:47 -33.53449 151.11041 20036 ft 362 kts 278°
2026-05-07 13:48 -33.52768 151.08136 20618 ft 363 kts 278°
2026-05-07 13:48 -33.52078 151.05213 21178 ft 365 kts 278°
2026-05-07 13:48 -33.51383 151.02284 21691 ft 366 kts 279°
2026-05-07 13:48 -33.50685 150.99340 22221 ft 368 kts 279°
2026-05-07 13:49 -33.49988 150.96387 22741 ft 369 kts 279°
2026-05-07 13:49 -33.49291 150.93421 23246 ft 371 kts 279°
2026-05-07 13:49 -33.48589 150.90439 23746 ft 373 kts 279°
2026-05-07 13:49 -33.47879 150.87446 24129 ft 375 kts 279°
2026-05-07 13:50 -33.47162 150.84435 24500 ft 377 kts 279°
2026-05-07 13:50 -33.46443 150.81407 24886 ft 379 kts 279°
2026-05-07 13:50 -33.45718 150.78356 25249 ft 382 kts 279°
2026-05-07 13:50 -33.44986 150.75293 25602 ft 384 kts 279°
2026-05-07 13:51 -33.44249 150.72211 25952 ft 386 kts 279°
2026-05-07 13:51 -33.43509 150.69112 26315 ft 388 kts 279°
2026-05-07 13:51 -33.42765 150.65997 26675 ft 390 kts 279°
2026-05-07 13:51 -33.42017 150.62865 27034 ft 393 kts 279°
2026-05-07 13:52 -33.41261 150.59712 27375 ft 396 kts 281°
2026-05-07 13:52 -33.40242 150.56612 27694 ft 406 kts 290°
2026-05-07 13:52 -33.38736 150.53698 28028 ft 418 kts 300°
2026-05-07 13:52 -33.36757 150.51079 28354 ft 430 kts 309°
2026-05-07 13:53 -33.34585 150.48603 28691 ft 432 kts 308°
2026-05-07 13:53 -33.32407 150.46110 28991 ft 434 kts 308°
2026-05-07 13:53 -33.30226 150.43605 29332 ft 436 kts 308°
2026-05-07 13:53 -33.28036 150.41088 29648 ft 437 kts 308°
2026-05-07 13:54 -33.25866 150.38592 29961 ft 439 kts 309°
2026-05-07 13:54 -33.23631 150.36020 30253 ft 441 kts 309°
2026-05-07 13:54 -33.21446 150.33507 30502 ft 443 kts 309°
2026-05-07 13:54 -33.19223 150.30952 30750 ft 444 kts 309°
2026-05-07 13:55 -33.17000 150.28407 31157 ft 441 kts 310°
2026-05-07 13:55 -33.14789 150.25878 31546 ft 439 kts 310°
2026-05-07 13:55 -33.12591 150.23369 31881 ft 437 kts 310°
2026-05-07 13:55 -33.10399 150.20869 32255 ft 435 kts 310°
2026-05-07 13:56 -33.08220 150.18384 32671 ft 433 kts 310°
2026-05-07 13:56 -33.06051 150.15908 33080 ft 430 kts 310°
2026-05-07 13:56 -33.03890 150.13444 33489 ft 428 kts 310°
2026-05-07 13:56 -33.01738 150.10998 33892 ft 427 kts 310°
2026-05-07 13:57 -32.99597 150.08563 34200 ft 425 kts 310°
2026-05-07 13:57 -32.95314 150.03695 34266 ft 421 kts 310°
2026-05-07 13:58 -32.91092 149.98891 34270 ft 420 kts 310°
2026-05-07 13:58 -32.86871 149.94094 34248 ft 420 kts 311°
2026-05-07 13:59 -32.82650 149.89305 34274 ft 419 kts 311°
2026-05-07 13:59 -32.78430 149.84530 34264 ft 419 kts 311°
2026-05-07 14:00 -32.74207 149.79761 34268 ft 418 kts 311°
2026-05-07 14:00 -32.69986 149.75004 34269 ft 418 kts 311°
2026-05-07 14:01 -32.65764 149.70247 34280 ft 419 kts 311°
2026-05-07 14:01 -32.61565 149.65513 34278 ft 419 kts 311°
2026-05-07 14:02 -32.57338 149.60759 34279 ft 419 kts 311°
2026-05-07 14:02 -32.53518 149.55622 34251 ft 415 kts 305°
2026-05-07 14:03 -32.49871 149.50327 34271 ft 414 kts 305°
2026-05-07 14:03 -32.45564 149.45769 34282 ft 428 kts 329°
2026-05-07 14:04 -32.39449 149.43549 34286 ft 437 kts 339°
2026-05-07 14:04 -32.18639 149.37014 34298 ft 437 kts 339°
2026-05-07 14:05 -31.95191 149.29599 34316 ft 436 kts 339°
2026-05-07 14:05 -31.71745 149.22246 34295 ft 436 kts 339°
2026-05-07 14:06 -31.48309 149.14922 34274 ft 436 kts 338°
2026-05-07 14:06 -31.24960 149.07663 34312 ft 434 kts 338°
2026-05-07 14:07 -31.01749 149.00512 34296 ft 428 kts 337°
2026-05-07 14:07 -30.78763 148.93427 34297 ft 426 kts 336°
2026-05-07 14:08 -30.56000 148.86488 34320 ft 424 kts 336°
2026-05-07 14:08 -30.33229 148.79531 34306 ft 421 kts 336°
2026-05-07 14:09 -30.10601 148.72675 34286 ft 418 kts 336°
2026-05-07 14:09 -29.88100 148.65890 34291 ft 417 kts 336°
2026-05-07 14:10 -29.65723 148.59173 34305 ft 414 kts 336°
2026-05-07 14:10 -29.43546 148.52540 34302 ft 410 kts 336°
2026-05-07 14:11 -29.21430 148.45969 34291 ft 410 kts 336°
2026-05-07 14:11 -28.99375 148.39432 34292 ft 408 kts 335°
2026-05-07 14:12 -28.77449 148.32964 34288 ft 406 kts 335°
2026-05-07 14:12 -28.55617 148.26562 34261 ft 404 kts 335°
2026-05-07 14:13 -28.33900 148.20203 34290 ft 402 kts 335°
2026-05-07 14:13 -28.12248 148.13898 34288 ft 401 kts 334°
2026-05-07 14:14 -27.90630 148.07634 34285 ft 401 kts 334°
2026-05-07 14:14 -27.69167 148.01448 34274 ft 399 kts 334°
2026-05-07 14:15 -27.47625 147.95238 34290 ft 399 kts 334°
2026-05-07 14:15 -27.26159 147.89110 34278 ft 397 kts 335°
2026-05-07 14:16 -27.04730 147.82995 34283 ft 397 kts 335°
2026-05-07 14:16 -26.83355 147.76912 34261 ft 397 kts 335°
2026-05-07 14:17 -26.65420 147.71826 34274 ft 396 kts 335°
2026-05-07 14:17 -26.44035 147.65815 34266 ft 396 kts 335°
2026-05-07 14:18 -26.22714 147.59817 34261 ft 395 kts 335°
2026-05-07 14:18 -26.01423 147.53866 34241 ft 394 kts 335°
2026-05-07 14:19 -25.80178 147.47928 34255 ft 393 kts 335°
2026-05-07 14:19 -25.58975 147.42039 34240 ft 392 kts 335°
2026-05-07 14:20 -25.37933 147.36214 34233 ft 392 kts 335°
2026-05-07 14:20 -25.16280 147.32017 34368 ft 410 kts 346°
2026-05-07 14:20 -25.04975 147.31546 34149 ft 394 kts 346°
2026-05-07 14:21 -24.93798 147.31065 34155 ft 405 kts 346°
2026-05-07 14:21 -24.82422 147.30617 34048 ft 400 kts 346°
2026-05-07 14:21 -24.71265 147.30143 34155 ft 408 kts 346°
2026-05-07 14:21 -24.59878 147.29693 33916 ft 406 kts 346°
2026-05-07 14:22 -24.48688 147.29248 34110 ft 407 kts 346°
2026-05-07 14:22 -24.37312 147.28782 33888 ft 403 kts 346°
2026-05-07 14:22 -24.26187 147.28335 34135 ft 407 kts 346°
2026-05-07 14:22 -24.14828 147.27875 33870 ft 410 kts 346°
2026-05-07 14:23 -24.03700 147.27449 34096 ft 405 kts 346°
2026-05-07 14:23 -23.92388 147.26985 33784 ft 408 kts 346°
2026-05-07 14:23 -23.81311 147.26541 34170 ft 404 kts 346°
2026-05-07 14:23 -23.70035 147.26087 33971 ft 409 kts 346°
2026-05-07 14:24 -23.58865 147.25672 34100 ft 405 kts 346°
2026-05-07 14:24 -23.47643 147.25206 33875 ft 410 kts 347°
2026-05-07 14:24 -23.36598 147.24792 34200 ft 400 kts 346°
2026-05-07 14:24 -23.25400 147.24312 34049 ft 409 kts 347°
2026-05-07 14:25 -23.14319 147.23906 34217 ft 396 kts 346°
2026-05-07 14:25 -22.91988 147.23025 34210 ft 395 kts 347°
2026-05-07 14:25 -22.80788 147.22565 34245 ft 406 kts 347°
2026-05-07 14:26 -22.69569 147.22142 34163 ft 396 kts 347°
2026-05-07 14:26 -22.47099 147.21273 34053 ft 393 kts 347°
2026-05-07 14:26 -22.35942 147.20816 34084 ft 405 kts 347°
2026-05-07 14:27 -22.24563 147.20380 33877 ft 399 kts 348°
2026-05-07 14:27 -22.13428 147.19945 34026 ft 409 kts 348°
2026-05-07 14:27 -22.02019 147.19507 33709 ft 412 kts 348°
2026-05-07 14:27 -21.90873 147.19096 34147 ft 407 kts 348°
2026-05-07 14:28 -21.79473 147.18636 34003 ft 415 kts 348°
2026-05-07 14:28 -21.68210 147.18216 34126 ft 405 kts 348°
2026-05-07 14:28 -21.56782 147.17743 34017 ft 414 kts 348°
2026-05-07 14:28 -21.45388 147.17315 33908 ft 415 kts 348°
2026-05-07 14:29 -21.34045 147.16877 33967 ft 412 kts 349°
2026-05-07 14:29 -21.22576 147.16427 33748 ft 415 kts 349°
2026-05-07 14:29 -21.16771 147.16231 34109 ft 403 kts 349°
2026-05-07 14:29 -21.13944 147.16122 33872 ft 409 kts 349°
2026-05-07 14:30 -21.11088 147.16005 33620 ft 412 kts 349°
2026-05-07 14:30 -21.08217 147.15889 33365 ft 414 kts 349°
2026-05-07 14:30 -21.05336 147.15776 33107 ft 415 kts 349°
2026-05-07 14:30 -21.02444 147.15668 32856 ft 417 kts 349°
2026-05-07 14:31 -20.99533 147.15562 32607 ft 418 kts 349°
2026-05-07 14:31 -20.96616 147.15451 32361 ft 420 kts 349°
2026-05-07 14:31 -20.93688 147.15336 32111 ft 421 kts 349°
2026-05-07 14:31 -20.90755 147.15223 31870 ft 423 kts 349°
2026-05-07 14:32 -20.87815 147.15111 31633 ft 424 kts 349°
2026-05-07 14:32 -20.84863 147.15002 31363 ft 425 kts 349°
2026-05-07 14:32 -20.81903 147.14891 30894 ft 426 kts 349°
2026-05-07 14:32 -20.78924 147.14775 30108 ft 429 kts 349°
2026-05-07 14:33 -20.75958 147.14663 29543 ft 423 kts 350°
2026-05-07 14:33 -20.73032 147.14556 28961 ft 418 kts 350°
2026-05-07 14:33 -20.70168 147.14312 28388 ft 407 kts 343°
2026-05-07 14:33 -20.67439 147.13642 27786 ft 399 kts 339°
2026-05-07 14:34 -20.64762 147.12913 27198 ft 396 kts 339°
2026-05-07 14:34 -20.62104 147.12197 26622 ft 392 kts 340°
2026-05-07 14:34 -20.59464 147.11493 26055 ft 389 kts 340°
2026-05-07 14:34 -20.56845 147.10797 25489 ft 387 kts 340°
2026-05-07 14:35 -20.54241 147.10106 24922 ft 384 kts 341°
2026-05-07 14:35 -20.51657 147.09419 24382 ft 382 kts 341°
2026-05-07 14:35 -20.49082 147.08729 23834 ft 381 kts 342°
2026-05-07 14:35 -20.46522 147.08038 23250 ft 379 kts 342°
2026-05-07 14:36 -20.43979 147.07353 22738 ft 375 kts 342°
2026-05-07 14:36 -20.41461 147.06676 22255 ft 371 kts 342°
2026-05-07 14:36 -20.38965 147.06007 21766 ft 368 kts 342°
2026-05-07 14:36 -20.36493 147.05346 21303 ft 364 kts 342°
2026-05-07 14:37 -20.34043 147.04694 20841 ft 360 kts 342°
2026-05-07 14:37 -20.29226 147.03412 19909 ft 354 kts 342°
2026-05-07 14:37 -20.26849 147.02777 19434 ft 351 kts 342°
2026-05-07 14:38 -20.24488 147.02147 18951 ft 348 kts 342°
2026-05-07 14:38 -20.22144 147.01524 18473 ft 347 kts 342°
2026-05-07 14:38 -20.19806 147.00901 17878 ft 347 kts 342°
2026-05-07 14:38 -20.17478 147.00281 17382 ft 343 kts 342°
2026-05-07 14:39 -20.15176 146.99667 16872 ft 340 kts 342°
2026-05-07 14:39 -20.12884 146.99055 16367 ft 338 kts 342°
2026-05-07 14:39 -20.10609 146.98448 15864 ft 337 kts 342°
2026-05-07 14:39 -20.08340 146.97843 15355 ft 335 kts 342°
2026-05-07 14:40 -20.06085 146.97244 14856 ft 334 kts 342°
2026-05-07 14:40 -20.03834 146.96645 14348 ft 333 kts 342°
2026-05-07 14:40 -20.01625 146.96055 13845 ft 332 kts 342°
2026-05-07 14:40 -19.99356 146.95449 13284 ft 331 kts 342°
2026-05-07 14:41 -19.97131 146.94859 12779 ft 329 kts 343°
2026-05-07 14:41 -19.94942 146.94280 12279 ft 328 kts 343°
2026-05-07 14:41 -19.92735 146.93691 11779 ft 326 kts 343°
2026-05-07 14:41 -19.90534 146.93103 11280 ft 325 kts 344°
2026-05-07 14:42 -19.88340 146.92522 10781 ft 324 kts 345°
2026-05-07 14:42 -19.86169 146.91949 10517 ft 316 kts 345°
2026-05-07 14:42 -19.84076 146.91397 10397 ft 304 kts 345°
2026-05-07 14:42 -19.82059 146.90859 10199 ft 296 kts 344°
2026-05-07 14:43 -19.80177 146.90054 10100 ft 290 kts 330°
2026-05-07 14:43 -19.78488 146.88882 10048 ft 290 kts 324°
2026-05-07 14:43 -19.76824 146.87665 9798 ft 292 kts 325°
2026-05-07 14:43 -19.75137 146.86441 9336 ft 294 kts 325°
2026-05-07 14:44 -19.73447 146.85219 8922 ft 294 kts 326°
2026-05-07 14:44 -19.71756 146.83995 8512 ft 294 kts 326°
2026-05-07 14:44 -19.70062 146.82765 8091 ft 295 kts 326°
2026-05-07 14:44 -19.68366 146.81535 7734 ft 294 kts 326°
2026-05-07 14:45 -19.66672 146.80305 7342 ft 294 kts 326°
2026-05-07 14:45 -19.64976 146.79073 6947 ft 295 kts 326°
2026-05-07 14:45 -19.63283 146.77843 6524 ft 296 kts 326°
2026-05-07 14:45 -19.61594 146.76619 6231 ft 294 kts 327°
2026-05-07 14:46 -19.59877 146.75449 5862 ft 293 kts 329°
2026-05-07 14:46 -19.58143 146.74331 5563 ft 290 kts 330°
2026-05-07 14:46 -19.56416 146.73244 5332 ft 286 kts 330°
2026-05-07 14:46 -19.54723 146.72181 5129 ft 280 kts 330°
2026-05-07 14:47 -19.53066 146.71134 4918 ft 275 kts 330°
2026-05-07 14:47 -19.51441 146.70102 4706 ft 269 kts 330°
2026-05-07 14:47 -19.49852 146.69086 4501 ft 263 kts 330°
2026-05-07 14:47 -19.48298 146.68111 4354 ft 254 kts 335°
2026-05-07 14:48 -19.46667 146.67555 4213 ft 242 kts 355°
2026-05-07 14:48 -19.45024 146.67571 3978 ft 233 kts 14°
2026-05-07 14:48 -19.43517 146.68105 3708 ft 227 kts 28°
2026-05-07 14:48 -19.42075 146.68790 3421 ft 227 kts 28°
2026-05-07 14:49 -19.40635 146.69471 3129 ft 226 kts 28°
2026-05-07 14:49 -19.39210 146.70145 2830 ft 223 kts 27°
2026-05-07 14:49 -19.37810 146.70807 2531 ft 219 kts 27°
2026-05-07 14:49 -19.36445 146.71452 2278 ft 209 kts 26°
2026-05-07 14:50 -19.35184 146.72048 2000 ft 194 kts 26°
2026-05-07 14:50 -19.33989 146.72612 1761 ft 181 kts 28°
2026-05-07 14:50 -19.32876 146.73139 1522 ft 170 kts 28°
2026-05-07 14:50 -19.31836 146.73631 1316 ft 157 kts 28°
2026-05-07 14:51 -19.30891 146.74077 1115 ft 142 kts 28°
2026-05-07 14:51 -19.30009 146.74495 936 ft 137 kts 28°
2026-05-07 14:51 -19.29146 146.74904 768 ft 136 kts 26°
2026-05-07 14:51 -19.28277 146.75314 596 ft 137 kts 26°
2026-05-07 14:52 -19.27416 146.75721 408 ft 134 kts 27°
2026-05-07 14:52 -19.26559 146.76126 234 ft 134 kts 26°
2026-05-07 14:52 -19.25709 146.76528 55 ft 133 kts 26°
2026-05-07 14:52 -19.25046 146.76840 21 ft 62 kts 24°
2026-05-07 14:53 -19.24642 146.77031 23 ft 65 kts 23°
2026-05-07 14:53 -19.24366 146.77159 23 ft 3 kts 26°
2026-05-07 14:53 -19.24358 146.77191 22 ft 7 kts 91°
2026-05-07 14:53 -19.24356 146.77252 22 ft 10 kts 92°
2026-05-07 14:54 -19.24380 146.77324 22 ft 8 kts 140°
2026-05-07 14:54 -19.24443 146.77354 22 ft 11 kts 166°
2026-05-07 14:54 -19.24526 146.77340 22 ft 13 kts 205°
2026-05-07 14:54 -19.24617 146.77290 22 ft 16 kts 208°
2026-05-07 14:55 -19.24724 146.77230 22 ft 19 kts 208°
2026-05-07 14:55 -19.24848 146.77163 22 ft 21 kts 206°
2026-05-07 14:55 -19.24987 146.77085 22 ft 24 kts 207°
2026-05-07 14:55 -19.25143 146.76999 22 ft 27 kts 208°
2026-05-07 14:56 -19.25294 146.76917 23 ft 19 kts 207°
2026-05-07 14:56 -19.25391 146.76898 22 ft 13 kts 154°
2026-05-07 14:56 -19.25439 146.76945 22 ft 15 kts 144°
2026-05-07 14:56 -19.25532 146.76940 22 ft 7 kts 194°
2026-05-07 14:57 -19.25586 146.76933 22 ft 8 kts 155°
2026-05-07 14:57 -19.25607 146.76979 22 ft 0 kts 104°
2026-05-07 14:57 -19.25609 146.76987 22 ft 2 kts 104°
2026-05-07 14:57 -19.25609 146.76988 22 ft 0 kts 104°